This is the latest recevied weather packets stored in our database for station/object EA7URS-13. If no packets are shown the sender has not sent any weather packets the latest 10 day(s).
| Time | Temp. | Humidity | Pressure | Rain* | Wind** | Luminosity | Snow |
|---|---|---|---|---|---|---|---|
| 1788450390 | 42.22° C | 16% | 1010.2 hPa | 0 mm | - | 300 W/m² | - |
| 1788450089 | 42.22° C | 16% | 1010.2 hPa | 0 mm | - | 329 W/m² | - |
| 1788449788 | 42.22° C | 16% | 1010.2 hPa | 0 mm | - | 329 W/m² | - |
| 1788449486 | 42.78° C | 16% | 1010.3 hPa | 0 mm | - | 348 W/m² | - |
| 1788449185 | 42.78° C | 16% | 1010.3 hPa | 0 mm | - | 348 W/m² | - |
| 1788448884 | 42.78° C | 17% | 1010.4 hPa | 0 mm | - | 379 W/m² | - |
| 1788448583 | 42.78° C | 17% | 1010.4 hPa | 0 mm | - | 379 W/m² | - |
| 1788448280 | 42.78° C | 17% | 1010.5 hPa | 0 mm | - | 394 W/m² | - |
| 1788447979 | 42.78° C | 17% | 1010.5 hPa | 0 mm | - | 394 W/m² | - |
| 1788447678 | 42.78° C | 17% | 1010.2 hPa | 0 mm | - | 425 W/m² | - |
| 1788447377 | 42.78° C | 17% | 1010.2 hPa | 0 mm | - | 425 W/m² | - |
| 1788447075 | 41.67° C | 18% | 1010.4 hPa | 0 mm | - | 450 W/m² | - |
| 1788446773 | 41.67° C | 18% | 1010.4 hPa | 0 mm | - | 450 W/m² | - |
| 1788446472 | 41.67° C | 19% | 1010.6 hPa | 0 mm | - | 472 W/m² | - |
| 1788446171 | 41.67° C | 19% | 1010.6 hPa | 0 mm | - | 472 W/m² | - |
| 1788445870 | 42.22° C | 18% | 1010.7 hPa | 0 mm | - | 493 W/m² | - |
| 1788445569 | 42.22° C | 18% | 1010.7 hPa | 0 mm | - | 493 W/m² | - |
| 1788445268 | 42.78° C | 19% | 1010.8 hPa | 0 mm | - | 518 W/m² | - |
| 1788444967 | 42.78° C | 19% | 1010.8 hPa | 0 mm | - | 518 W/m² | - |
| 1788444665 | 41.67° C | 19% | 1010.8 hPa | 0 mm | - | 534 W/m² | - |
| 1788444365 | 41.67° C | 19% | 1010.8 hPa | 0 mm | - | 534 W/m² | - |
| 1788444063 | 41.67° C | 21% | 1010.9 hPa | 0 mm | - | 555 W/m² | - |
| 1788443762 | 41.67° C | 21% | 1010.9 hPa | 0 mm | - | 555 W/m² | - |
| 1788443461 | 41.67° C | 20% | 1010.5 hPa | 0 mm | - | 574 W/m² | - |
| 1788443160 | 41.67° C | 20% | 1010.5 hPa | 0 mm | - | 574 W/m² | - |
* Rain latest hour (hover to see other rain measurements)
** Current wind speed in m/s (hover to see current wind gust speed)